Home   Weather   Olympia   Past weeks

Flag for USA Past Weather in Olympia, Washington, USA — Yesterday and Last 2 Weeks

Now
44 °F

Overcast.


Feels Like: 44 °F
Forecast: 36 / 49 °F
Wind: No wind

Location: Olympia Airport

Current Time: Jan 21, 2017 at 11:51:16 am

Latest Report: Jan 21, 2017 at 10:54 am


Visibility: 10 mi

Pressure: 29.38 "Hg

Humidity: 89%

Dew Point: 41 °F

Location of OlympiaLocation

Past Weather in Olympia — Graph

°F

Olympia Temperature Yesterday

Maximum temperature yesterday: 45 °F (at 12:54 pm)
Minimum temperature yesterday: 34 °F (at 12:58 am)
Average temperature yesterday: 38 °F

High & Low Weather Summary for the Past Weeks

 TemperatureHumidityPressure
High53 °F (Jan 18, 12:01 pm)100% (Jan 8, 3:54 am)30.46 "Hg (Jan 8, 3:54 am)
Low17 °F (Jan 7, 3:54 am)39% (Jan 6, 1:54 pm)29.10 "Hg (Jan 20, 12:54 pm)
Average35 °F89%29.78 "Hg
* Reported Jan 6 9:54 am — Jan 21 9:54 am, Olympia, Weather by CustomWeather, © 2017

Note: Actual official high and low records may vary slightly from our data, if they occured in-between our weather recording intervals... More about our weather records

Advertising

Olympia Weather History for the Previous 24 Hours

Scroll right to see more
 ConditionsComfort  
Time TempWeatherWind HumidityBarometerVisibility
9:54 am
Sat, Jan 21
39 °FLight rain. Partly sunny.No wind100%29.37 "Hg7 mi
8:54 am36 °FFog.No wind100%29.35 "Hg6 mi
7:54 am35 °FFog.No wind100%29.32 "Hg6 mi
6:54 am34 °FFog.No wind100%29.30 "Hg5 mi
6:32 am34 °FFog.No wind100%29.29 "Hg3 mi
5:55 am34 °FFog.No wind100%29.28 "Hg2 mi
4:54 am33 °FFog.3 mph100%29.27 "Hg1 mi
4:11 am34 °FFog.No wind100%29.26 "Hg1 mi
3:54 am34 °FFog.No wind100%29.26 "Hg1 mi
3:36 am34 °FFog.No wind100%29.26 "Hg1 mi
3:10 am34 °FFog.No wind100%29.25 "Hg1 mi
2:54 am35 °FFog.No wind100%29.25 "Hg1 mi
2:36 am35 °FFog.No wind100%29.25 "Hg1 mi
2:23 am35 °FFog.No wind100%29.24 "Hg2 mi
2:08 am35 °FLight rain. Fog.No wind100%29.24 "Hg1 mi
1:54 am35 °FFog.3 mph100%29.24 "Hg1 mi
1:13 am34 °FFog.No wind100%29.22 "Hg1 mi
12:54 am34 °FFog.No wind100%29.22 "Hg1 mi
11:54 pm
Fri, Jan 20
35 °FFog.5 mph100%29.21 "Hg0 mi
10:54 pm35 °FFog.No wind100%29.20 "Hg1 mi
10:43 pm36 °FFog.No wind100%29.19 "Hg1 mi
10:14 pm36 °FFog.No wind100%29.19 "Hg0 mi
9:54 pm35 °FFog.No wind100%29.18 "Hg1 mi
9:21 pm37 °FFog.No wind100%29.18 "Hg0 mi
9:02 pm37 °FFog.No wind100%29.17 "Hg0 mi
8:54 pm37 °FFog.No wind100%29.17 "Hg1 mi
8:31 pm40 °FFog.No wind100%29.16 "Hg1 mi
7:54 pm40 °FFog.No wind100%29.16 "Hg1 mi
6:54 pm42 °FLight rain. Overcast.No wind96%29.15 "Hg9 mi
5:54 pm43 °FLight rain. Mostly cloudy.3 mph97%29.14 "Hg10 mi
4:54 pm42 °FLight rain. Fog.3 mph100%29.13 "Hg6 mi
3:54 pm44 °FLight rain. Mostly cloudy.No wind93%29.12 "Hg9 mi
2:54 pm45 °FLight rain. Overcast.3 mph86%29.10 "Hg10 mi
1:54 pm45 °FOvercast.No wind80%29.10 "Hg10 mi
12:54 pm45 °FOvercast.No wind80%29.10 "Hg10 mi
11:54 am44 °FOvercast.5 mph79%29.10 "Hg10 mi
Weather by CustomWeather, © 2017

See weather overviewHow to use our weather pages